Regional Weather Roundup
Issued by NWS

Home | Current Version | Previous Version | Text Only | Print | Product List | Glossary On
Versions: 1 2 3 4 5 6 7 8 9 10 11 12 13 14 15 16 17 18 19 20 21 22 23 24 25 26 27 28 29 30 31 32 33 34 35 36 37 38 39 40 41 42 43 44 45 46 47 48 49 50
000
ASUS45 KBOI 221110
RWRID

IDAHO REGIONAL WEATHER ROUNDUP
NATIONAL WEATHER SERVICE BOISE ID
500 AM MDT FRI MAY 22 2015

NOTE: "FAIR" INDICATES FEW OR NO CLOUDS BELOW 12000 FEET
WITH NO SIGNIFICANT WEATHER AND/OR OBSTRUCTIONS TO VISIBILITY

IDZ012-014-221200-
SOUTHWEST IDAHO


CITY           SKY/WX    TMP DP  RH WIND       PRES   REMARKS
BOISE          PTCLDY    53  47  79 SE8       29.87S
CALDWELL       PTCLDY    52  41  66 CALM      29.87S
MOUNTAIN HOME  MOCLDY    49  43  77 NE3       29.87R
$$

IDZ016-017-221200-
SOUTHCENTRAL IDAHO


CITY           SKY/WX    TMP DP  RH WIND       PRES   REMARKS
BURLEY         CLOUDY    52  47  83 CALM      29.89S
JEROME         CLOUDY    50  45  83 E8        29.90R
TWIN FALLS     CLOUDY    52  43  71 S8        29.87R
$$

IDZ019>023-221200-
SOUTHEAST IDAHO


CITY           SKY/WX    TMP DP  RH WIND       PRES   REMARKS
IDAHO FALLS    CLOUDY    47  44  90 NE5       29.93F
POCATELLO      CLOUDY    48  46  93 CALM      29.92S
REXBURG        CLOUDY    49  45  86 N5        29.94F
$$

IDZ006-010-011-018-031-032-221200-
CENTRAL IDAHO MOUNTAINS


CITY           SKY/WX    TMP DP  RH WIND       PRES   REMARKS
MCCALL         PTCLDY    39  37  92 CALM      29.92R
HAILEY         PTCLDY    45  41  87 NW8       29.96F
STANLEY          N/A     42  38  85 CALM      30.00S
SALMON         MOCLDY    46  43  87 CALM      29.93S
CHALLIS        PTCLDY    43  39  86 CALM      29.96R
$$

IDZ002-004-006-007-026-221200-
NORTHERN IDAHO


CITY           SKY/WX    TMP DP  RH WIND       PRES   REMARKS
LEWISTON       PTCLDY    58  52  80 CALM      29.84R
LOWELL           N/A     50  48  93 CALM      29.91S
COEUR D`ALENE  PTCLDY    57  48  72 SE7       29.85R
MULLAN PASS    CLEAR     48  37  65 SE7       29.98S
$$


USA.gov is the U.S. government's official web portal to all federal, state and local government web resources and services.